Weather History for Indiana, PA

Change the Weather History Date:

Saturday, January 19, 2013

  Actual Average Record
Temperature  
Mean Temperature 41 °F -  
Max Temperature 50 °F 34 °F 60 °F (1949)
Min Temperature 32 °F 15 °F -8 °F (1965)
Degree Days  
Heating Degree Days 24    
Moisture  
Dew Point 19 °F    
Average Humidity 40    
Maximum Humidity 51    
Minimum Humidity 30    
Precipitation  
Precipitation 0.00 in - - ()
Sea Level Pressure  
Sea Level Pressure 30.04 in    
Wind  
Wind Speed 13 mph (WSW)    
Max Wind Speed 21 mph    
Max Gust Speed 29 mph    
Visibility 10 miles    
Events      
Averages and records for this station are not official NWS values.
T = Trace of Precipitation, MM = Missing Value Source: NWS Daily Summary

Daily Weather History Graph

Daily Weather History Graph

Search for Another Location

Airport:

Trip Planner

Search our weather history database for the weather conditions in past years. The results will help you decide how hot, cold, wet, or windy it might be!

Date:

Astronomy

Jan. 19, 2013 Rise Set
Actual Time 7:36 AM EST 5:18 PM EST
Civil Twilight 7:06 AM EST 5:48 PM EST
Nautical Twilight 6:32 AM EST 6:22 PM EST
Astronomical Twilight 6:00 AM EST 6:54 PM EST
Moon 11:44 AM EST (1/19) 1:08 AM EST (1/19)
Length of Visible Light 10h 42m
Length of Day
9h 42m
First Quarter, 57% of the Moon is Illuminated
Jan 19
First Quarter
Jan 26
Full
Feb 3
Last Quarter
Feb 10
New
Feb 17
First Quarter

Hourly Weather History & Observations

Time (EST) Temp. Windchill Dew Point Humidity Pressure Visibility Wind Dir Wind Speed Gust Speed Precip Events Conditions
12:15 AM 32.0 °F 22.5 °F 15.8 °F 51% 30.22 in 10.0 mi WSW 12.7 mph 19.6 mph N/A   Unknown
12:35 AM 33.8 °F 22.8 °F 15.8 °F 48% 30.21 in 10.0 mi SW 18.4 mph 23.0 mph N/A   Unknown
12:55 AM 33.8 °F 23.9 °F 15.8 °F 48% 30.21 in 10.0 mi WSW 15.0 mph 25.3 mph N/A   Unknown
1:15 AM 33.8 °F 25.3 °F 12.2 °F 41% 30.21 in 10.0 mi SW 11.5 mph 21.9 mph N/A   Unknown
1:35 AM 33.8 °F 24.3 °F 12.2 °F 41% 30.21 in 10.0 mi WSW 13.8 mph 19.6 mph N/A   Unknown
1:55 AM 33.8 °F 25.3 °F 12.2 °F 41% 30.20 in 10.0 mi WSW 11.5 mph 20.7 mph N/A   Unknown
2:15 AM 35.6 °F 27.1 °F 12.2 °F 38% 30.21 in 10.0 mi WSW 12.7 mph 21.9 mph N/A   Unknown
2:35 AM 35.6 °F 27.5 °F 12.2 °F 38% 30.20 in 10.0 mi WSW 11.5 mph 19.6 mph N/A   Unknown
2:55 AM 35.6 °F 27.1 °F 12.2 °F 38% 30.20 in 10.0 mi WSW 12.7 mph 17.3 mph N/A   Unknown
3:15 AM 35.6 °F 28.0 °F 12.2 °F 38% 30.20 in 10.0 mi WSW 10.4 mph 19.6 mph N/A   Unknown
3:35 AM 35.6 °F 27.1 °F 12.2 °F 38% 30.18 in 10.0 mi SW 12.7 mph 16.1 mph N/A   Unknown
3:55 AM 35.6 °F 27.1 °F 12.2 °F 38% 30.18 in 10.0 mi SW 12.7 mph 16.1 mph N/A   Unknown
4:15 AM 35.6 °F 28.0 °F 12.2 °F 38% 30.17 in 10.0 mi SW 10.4 mph - N/A   Unknown
4:35 AM 35.6 °F 28.0 °F 12.2 °F 38% 30.17 in 10.0 mi WSW 10.4 mph 19.6 mph N/A   Unknown
4:55 AM 35.6 °F 27.1 °F 12.2 °F 38% 30.17 in 10.0 mi SW 12.7 mph 16.1 mph N/A   Unknown
5:15 AM 35.6 °F 28.0 °F 14.0 °F 41% 30.16 in 10.0 mi SW 10.4 mph 19.6 mph N/A   Unknown
5:35 AM 33.8 °F 25.3 °F 15.8 °F 48% 30.16 in 10.0 mi WSW 11.5 mph - N/A   Unknown
5:55 AM 33.8 °F 25.8 °F 15.8 °F 48% 30.16 in 10.0 mi WSW 10.4 mph 17.3 mph N/A   Unknown
6:15 AM 33.8 °F 25.8 °F 15.8 °F 48% 30.15 in 10.0 mi WSW 10.4 mph - N/A   Unknown
6:35 AM 33.8 °F 25.3 °F 15.8 °F 48% 30.15 in 10.0 mi WSW 11.5 mph - N/A   Unknown
6:55 AM 33.8 °F 24.8 °F 15.8 °F 48% 30.15 in 10.0 mi WSW 12.7 mph 17.3 mph N/A   Unknown
8:15 AM 35.6 °F 27.1 °F 17.6 °F 48% 30.14 in 10.0 mi WSW 12.7 mph 21.9 mph N/A   Unknown
8:55 AM 37.4 °F 28.5 °F 17.6 °F 45% 30.14 in 10.0 mi WSW 15.0 mph 24.2 mph N/A   Unknown
9:15 AM 37.4 °F 28.2 °F 19.4 °F 48% 30.14 in 10.0 mi WSW 16.1 mph 23.0 mph N/A   Unknown
10:35 AM 42.8 °F 35.8 °F 21.2 °F 42% 30.14 in 10.0 mi WSW 13.8 mph 20.7 mph N/A   Unknown
10:55 AM 42.8 °F 36.2 °F 21.2 °F 42% 30.13 in 10.0 mi WSW 12.7 mph 23.0 mph N/A   Unknown
11:15 AM 42.8 °F 35.1 °F 21.2 °F 42% 30.12 in 10.0 mi WSW 16.1 mph 24.2 mph N/A   Unknown
11:35 AM 44.6 °F 36.4 °F 21.2 °F 39% 30.10 in 10.0 mi West 20.7 mph 27.6 mph N/A   Unknown
11:55 AM 44.6 °F 36.6 °F 21.2 °F 39% 30.09 in 10.0 mi WSW 19.6 mph - N/A   Unknown
12:15 PM 46.4 °F 39.5 °F 23.0 °F 40% 30.08 in 10.0 mi WSW 17.3 mph 25.3 mph N/A   Unknown
12:35 PM 46.4 °F 40.1 °F 23.0 °F 40% 30.06 in 10.0 mi West 15.0 mph 26.5 mph N/A   Unknown
12:55 PM 46.4 °F 40.1 °F 23.0 °F 40% 30.05 in 10.0 mi WSW 15.0 mph 23.0 mph N/A   Unknown
1:15 PM 46.4 °F 39.2 °F 23.0 °F 40% 30.04 in 10.0 mi WSW 18.4 mph 24.2 mph N/A   Unknown
1:35 PM 48.2 °F - 23.0 °F 37% 30.03 in 10.0 mi WSW 16.1 mph 25.3 mph N/A   Unknown
1:55 PM 48.2 °F - 21.2 °F 34% 30.02 in 10.0 mi WSW 15.0 mph 28.8 mph N/A   Unknown
2:15 PM 48.2 °F - 21.2 °F 34% 30.01 in 10.0 mi WSW 12.7 mph 25.3 mph N/A   Unknown
2:35 PM 48.2 °F - 21.2 °F 34% 30.00 in 10.0 mi West 13.8 mph 24.2 mph N/A   Unknown
2:55 PM 50.0 °F - 21.2 °F 32% 29.99 in 10.0 mi WSW 16.1 mph 27.6 mph N/A   Unknown
3:15 PM 50.0 °F - 19.4 °F 30% 29.98 in 10.0 mi WSW 20.7 mph 28.8 mph N/A   Unknown
3:35 PM 50.0 °F - 21.2 °F 32% 29.97 in 10.0 mi WSW 17.3 mph 26.5 mph N/A   Unknown
3:55 PM 50.0 °F - 21.2 °F 32% 29.96 in 10.0 mi WSW 13.8 mph 21.9 mph N/A   Unknown
4:15 PM 50.0 °F - 21.2 °F 32% 29.96 in 10.0 mi WSW 13.8 mph 20.7 mph N/A   Unknown
4:35 PM 50.0 °F - 21.2 °F 32% 29.95 in 10.0 mi WSW 11.5 mph 19.6 mph N/A   Unknown
4:55 PM 48.2 °F - 21.2 °F 34% 29.95 in 10.0 mi SW 9.2 mph - N/A   Unknown
5:15 PM 48.2 °F - 23.0 °F 37% 29.94 in 10.0 mi SW 12.7 mph 17.3 mph N/A   Unknown
5:35 PM 46.4 °F 41.9 °F 23.0 °F 40% 29.93 in 10.0 mi SW 9.2 mph - N/A   Unknown
5:55 PM 46.4 °F 42.4 °F 23.0 °F 40% 29.93 in 10.0 mi SW 8.1 mph - N/A   Unknown
6:15 PM 46.4 °F 43.5 °F 23.0 °F 40% 29.92 in 10.0 mi SW 5.8 mph - N/A   Unknown
6:35 PM 44.6 °F 40.2 °F 23.0 °F 43% 29.92 in 10.0 mi SW 8.1 mph - N/A   Unknown
6:55 PM 44.6 °F 39.7 °F 23.0 °F 43% 29.91 in 10.0 mi SW 9.2 mph - N/A   Unknown
7:15 PM 44.6 °F 40.7 °F 23.0 °F 43% 29.91 in 10.0 mi SW 6.9 mph - N/A   Unknown
7:35 PM 44.6 °F 40.2 °F 23.0 °F 43% 29.90 in 10.0 mi SW 8.1 mph - N/A   Unknown
7:55 PM 44.6 °F 39.2 °F 21.2 °F 39% 29.89 in 10.0 mi SW 10.4 mph 16.1 mph N/A   Unknown
8:15 PM 46.4 °F 40.1 °F 21.2 °F 37% 29.88 in 10.0 mi SW 15.0 mph 23.0 mph N/A   Unknown
8:35 PM 46.4 °F 40.7 °F 21.2 °F 37% 29.87 in 10.0 mi WSW 12.7 mph 21.9 mph N/A   Unknown
8:55 PM 46.4 °F 40.1 °F 21.2 °F 37% 29.86 in 10.0 mi WSW 15.0 mph 26.5 mph N/A   Unknown
9:15 PM 46.4 °F 38.7 °F 21.2 °F 37% 29.85 in 10.0 mi SW 20.7 mph 28.8 mph N/A   Unknown
9:35 PM 46.4 °F 39.5 °F 21.2 °F 37% 29.85 in 10.0 mi WSW 17.3 mph 25.3 mph N/A   Unknown
9:55 PM 46.4 °F 39.5 °F 21.2 °F 37% 29.85 in 10.0 mi WSW 17.3 mph 25.3 mph N/A   Unknown
10:15 PM 46.4 °F 39.8 °F 21.2 °F 37% 29.84 in 10.0 mi WSW 16.1 mph 21.9 mph N/A   Unknown
10:35 PM 46.4 °F 41.1 °F 21.2 °F 37% 29.83 in 10.0 mi WSW 11.5 mph - N/A   Unknown
10:55 PM 44.6 °F 38.1 °F 23.0 °F 43% 29.83 in 10.0 mi WSW 13.8 mph 23.0 mph N/A   Unknown
11:15 PM 44.6 °F 37.8 °F 21.2 °F 39% 29.82 in 10.0 mi WSW 15.0 mph 20.7 mph N/A   Unknown
11:35 PM 44.6 °F 37.4 °F 21.2 °F 39% 29.82 in 10.0 mi WSW 16.1 mph 24.2 mph N/A   Unknown
11:55 PM 44.6 °F 38.1 °F 23.0 °F 43% 29.81 in 10.0 mi WSW 13.8 mph 20.7 mph N/A   Unknown